Year,Month,Day,Hour,Minute,Value (Times are PST for insolation in W/m^2)
2019,10,02,00,00,0.00
2019,10,02,00,01,0.00
2019,10,02,00,02,0.00
2019,10,02,00,03,0.00
2019,10,02,00,04,0.00
2019,10,02,00,05,0.00
2019,10,02,00,06,0.00
2019,10,02,00,07,0.00
2019,10,02,00,08,0.00
2019,10,02,00,09,0.00
2019,10,02,00,10,0.00
2019,10,02,00,11,0.00
2019,10,02,00,12,0.00
2019,10,02,00,13,0.00
2019,10,02,00,14,0.00
2019,10,02,00,15,0.00
2019,10,02,00,16,0.00
2019,10,02,00,17,0.00
2019,10,02,00,18,0.00
2019,10,02,00,19,0.00
2019,10,02,00,20,0.00
2019,10,02,00,21,0.00
2019,10,02,00,22,0.00
2019,10,02,00,23,0.00
2019,10,02,00,24,0.00
2019,10,02,00,25,0.00
2019,10,02,00,26,0.00
2019,10,02,00,27,0.00
2019,10,02,00,28,0.00
2019,10,02,00,29,0.00
2019,10,02,00,30,0.00
2019,10,02,00,31,0.00
2019,10,02,00,32,0.00
2019,10,02,00,33,0.00
2019,10,02,00,34,0.00
2019,10,02,00,35,0.00
2019,10,02,00,36,0.00
2019,10,02,00,37,0.00
2019,10,02,00,38,0.00
2019,10,02,00,39,0.00
2019,10,02,00,40,0.00
2019,10,02,00,41,0.00
2019,10,02,00,42,0.00
2019,10,02,00,43,0.00
2019,10,02,00,44,0.00
2019,10,02,00,45,0.00
2019,10,02,00,46,0.00
2019,10,02,00,47,0.00
2019,10,02,00,48,0.00
2019,10,02,00,49,0.00
2019,10,02,00,50,0.00
2019,10,02,00,51,0.00
2019,10,02,00,52,0.00
2019,10,02,00,53,0.00
2019,10,02,00,54,0.00
2019,10,02,00,55,0.00
2019,10,02,00,56,0.00
2019,10,02,00,57,0.00
2019,10,02,00,58,0.00
2019,10,02,00,59,0.00
2019,10,02,01,00,0.00
2019,10,02,01,01,0.00
2019,10,02,01,02,0.00
2019,10,02,01,03,0.00
2019,10,02,01,04,0.00
2019,10,02,01,05,0.00
2019,10,02,01,06,0.00
2019,10,02,01,07,0.00
2019,10,02,01,08,0.00
2019,10,02,01,09,0.00
2019,10,02,01,10,0.00
2019,10,02,01,11,0.00
2019,10,02,01,12,0.00
2019,10,02,01,13,0.00
2019,10,02,01,14,0.00
2019,10,02,01,15,0.00
2019,10,02,01,16,0.00
2019,10,02,01,17,0.00
2019,10,02,01,18,0.00
2019,10,02,01,19,0.00
2019,10,02,01,20,0.00
2019,10,02,01,21,0.00
2019,10,02,01,22,0.00
2019,10,02,01,23,0.00
2019,10,02,01,24,0.00
2019,10,02,01,25,0.00
2019,10,02,01,26,0.00
2019,10,02,01,27,0.00
2019,10,02,01,28,0.00
2019,10,02,01,29,0.00
2019,10,02,01,30,0.00
2019,10,02,01,31,0.00
2019,10,02,01,32,0.00
2019,10,02,01,33,0.00
2019,10,02,01,34,0.00
2019,10,02,01,35,0.00
2019,10,02,01,36,0.00
2019,10,02,01,37,0.00
2019,10,02,01,38,0.00
2019,10,02,01,39,0.00
2019,10,02,01,40,0.00
2019,10,02,01,41,0.00
2019,10,02,01,42,0.00
2019,10,02,01,43,0.00
2019,10,02,01,44,0.00
2019,10,02,01,45,0.00
2019,10,02,01,46,0.00
2019,10,02,01,47,0.00
2019,10,02,01,48,0.00
2019,10,02,01,49,0.00
2019,10,02,01,50,0.00
2019,10,02,01,51,0.00
2019,10,02,01,52,0.00
2019,10,02,01,53,0.00
2019,10,02,01,54,0.00
2019,10,02,01,55,0.00
2019,10,02,01,56,0.00
2019,10,02,01,57,0.00
2019,10,02,01,58,0.00
2019,10,02,01,59,0.00
2019,10,02,02,00,0.00
2019,10,02,02,01,0.00
2019,10,02,02,02,0.00
2019,10,02,02,03,0.00
2019,10,02,02,04,0.00
2019,10,02,02,05,0.00
2019,10,02,02,06,0.00
2019,10,02,02,07,0.00
2019,10,02,02,08,0.00
2019,10,02,02,09,0.00
2019,10,02,02,10,0.00
2019,10,02,02,11,0.00
2019,10,02,02,12,0.00
2019,10,02,02,13,0.00
2019,10,02,02,14,0.00
2019,10,02,02,15,0.00
2019,10,02,02,16,0.00
2019,10,02,02,17,0.00
2019,10,02,02,18,0.00
2019,10,02,02,19,0.00
2019,10,02,02,20,0.00
2019,10,02,02,21,0.00
2019,10,02,02,22,0.00
2019,10,02,02,23,0.00
2019,10,02,02,24,0.00
2019,10,02,02,25,0.00
2019,10,02,02,26,0.00
2019,10,02,02,27,0.00
2019,10,02,02,28,0.00
2019,10,02,02,29,0.00
2019,10,02,02,30,0.00
2019,10,02,02,31,0.00
2019,10,02,02,32,0.00
2019,10,02,02,33,0.00
2019,10,02,02,34,0.00
2019,10,02,02,35,0.00
2019,10,02,02,36,0.00
2019,10,02,02,37,0.00
2019,10,02,02,38,0.00
2019,10,02,02,39,0.00
2019,10,02,02,40,0.00
2019,10,02,02,41,0.00
2019,10,02,02,42,0.00
2019,10,02,02,43,0.00
2019,10,02,02,44,0.00
2019,10,02,02,45,0.00
2019,10,02,02,46,0.00
2019,10,02,02,47,0.00
2019,10,02,02,48,0.00
2019,10,02,02,49,0.00
2019,10,02,02,50,0.00
2019,10,02,02,51,0.00
2019,10,02,02,52,0.00
2019,10,02,02,53,0.00
2019,10,02,02,54,0.00
2019,10,02,02,55,0.00
2019,10,02,02,56,0.00
2019,10,02,02,57,0.00
2019,10,02,02,58,0.00
2019,10,02,02,59,0.00
2019,10,02,03,00,0.00
2019,10,02,03,01,0.00
2019,10,02,03,02,0.00
2019,10,02,03,03,0.00
2019,10,02,03,04,0.00
2019,10,02,03,05,0.00
2019,10,02,03,06,0.00
2019,10,02,03,07,0.00
2019,10,02,03,08,0.00
2019,10,02,03,09,0.00
2019,10,02,03,10,0.00
2019,10,02,03,11,0.00
2019,10,02,03,12,0.00
2019,10,02,03,13,0.00
2019,10,02,03,14,0.00
2019,10,02,03,15,0.00
2019,10,02,03,16,0.00
2019,10,02,03,17,0.00
2019,10,02,03,18,0.00
2019,10,02,03,19,0.00
2019,10,02,03,20,0.00
2019,10,02,03,21,0.00
2019,10,02,03,22,0.00
2019,10,02,03,23,0.00
2019,10,02,03,24,0.00
2019,10,02,03,25,0.00
2019,10,02,03,26,0.00
2019,10,02,03,27,0.00
2019,10,02,03,28,0.00
2019,10,02,03,29,0.00
2019,10,02,03,30,0.00
2019,10,02,03,31,0.00
2019,10,02,03,32,0.00
2019,10,02,03,33,0.00
2019,10,02,03,34,0.00
2019,10,02,03,35,0.00
2019,10,02,03,36,0.00
2019,10,02,03,37,0.00
2019,10,02,03,38,0.00
2019,10,02,03,39,0.00
2019,10,02,03,40,0.00
2019,10,02,03,41,0.00
2019,10,02,03,42,0.00
2019,10,02,03,43,0.00
2019,10,02,03,44,0.00
2019,10,02,03,45,0.00
2019,10,02,03,46,0.00
2019,10,02,03,47,0.00
2019,10,02,03,48,0.00
2019,10,02,03,49,0.00
2019,10,02,03,50,0.00
2019,10,02,03,51,0.00
2019,10,02,03,52,0.00
2019,10,02,03,53,0.00
2019,10,02,03,54,0.00
2019,10,02,03,55,0.00
2019,10,02,03,56,0.00
2019,10,02,03,57,0.00
2019,10,02,03,58,0.00
2019,10,02,03,59,0.00
2019,10,02,04,00,0.00
2019,10,02,04,01,0.00
2019,10,02,04,02,0.00
2019,10,02,04,03,0.00
2019,10,02,04,04,0.00
2019,10,02,04,05,0.00
2019,10,02,04,06,0.00
2019,10,02,04,07,0.00
2019,10,02,04,08,0.00
2019,10,02,04,09,0.00
2019,10,02,04,10,0.00
2019,10,02,04,11,0.00
2019,10,02,04,12,0.00
2019,10,02,04,13,0.00
2019,10,02,04,14,0.00
2019,10,02,04,15,0.00
2019,10,02,04,16,0.00
2019,10,02,04,17,0.00
2019,10,02,04,18,0.00
2019,10,02,04,19,0.00
2019,10,02,04,20,0.00
2019,10,02,04,21,0.00
2019,10,02,04,22,0.00
2019,10,02,04,23,0.00
2019,10,02,04,24,0.00
2019,10,02,04,25,0.00
2019,10,02,04,26,0.00
2019,10,02,04,27,0.00
2019,10,02,04,28,0.00
2019,10,02,04,29,0.00
2019,10,02,04,30,0.00
2019,10,02,04,31,0.00
2019,10,02,04,32,0.00
2019,10,02,04,33,0.00
2019,10,02,04,34,0.00
2019,10,02,04,35,0.00
2019,10,02,04,36,0.00
2019,10,02,04,37,0.00
2019,10,02,04,38,0.00
2019,10,02,04,39,0.00
2019,10,02,04,40,0.00
2019,10,02,04,41,0.00
2019,10,02,04,42,0.00
2019,10,02,04,43,0.00
2019,10,02,04,44,0.00
2019,10,02,04,45,0.00
2019,10,02,04,46,0.00
2019,10,02,04,47,0.00
2019,10,02,04,48,0.00
2019,10,02,04,49,0.00
2019,10,02,04,50,0.00
2019,10,02,04,51,0.00
2019,10,02,04,52,0.00
2019,10,02,04,53,0.00
2019,10,02,04,54,0.00
2019,10,02,04,55,0.00
2019,10,02,04,56,0.00
2019,10,02,04,57,0.00
2019,10,02,04,58,0.00
2019,10,02,04,59,0.00
2019,10,02,05,00,0.00
2019,10,02,05,01,0.00
2019,10,02,05,02,0.00
2019,10,02,05,03,0.00
2019,10,02,05,04,0.00
2019,10,02,05,05,0.00
2019,10,02,05,06,0.00
2019,10,02,05,07,0.00
2019,10,02,05,08,0.00
2019,10,02,05,09,0.00
2019,10,02,05,10,0.00
2019,10,02,05,11,0.00
2019,10,02,05,12,0.00
2019,10,02,05,13,0.00
2019,10,02,05,14,0.00
2019,10,02,05,15,0.00
2019,10,02,05,16,0.00
2019,10,02,05,17,0.00
2019,10,02,05,18,0.00
2019,10,02,05,19,0.00
2019,10,02,05,20,0.00
2019,10,02,05,21,0.00
2019,10,02,05,22,0.00
2019,10,02,05,23,0.00
2019,10,02,05,24,0.00
2019,10,02,05,25,0.00
2019,10,02,05,26,0.00
2019,10,02,05,27,0.00
2019,10,02,05,28,0.00
2019,10,02,05,29,0.00
2019,10,02,05,30,0.00
2019,10,02,05,31,0.00
2019,10,02,05,32,0.00
2019,10,02,05,33,0.00
2019,10,02,05,34,0.00
2019,10,02,05,35,0.00
2019,10,02,05,36,0.00
2019,10,02,05,37,0.00
2019,10,02,05,38,0.00
2019,10,02,05,39,0.00
2019,10,02,05,40,0.00
2019,10,02,05,41,0.00
2019,10,02,05,42,0.00
2019,10,02,05,43,0.00
2019,10,02,05,44,0.00
2019,10,02,05,45,0.00
2019,10,02,05,46,0.00
2019,10,02,05,47,0.00
2019,10,02,05,48,0.00
2019,10,02,05,49,0.00
2019,10,02,05,50,0.00
2019,10,02,05,51,0.00
2019,10,02,05,52,0.00
2019,10,02,05,53,0.00
2019,10,02,05,54,0.00
2019,10,02,05,55,0.00
2019,10,02,05,56,0.00
2019,10,02,05,57,0.00
2019,10,02,05,58,0.00
2019,10,02,05,59,0.00
2019,10,02,06,00,0.00
2019,10,02,06,01,0.00
2019,10,02,06,02,0.00
2019,10,02,06,03,0.00
2019,10,02,06,04,0.00
2019,10,02,06,05,0.00
2019,10,02,06,06,0.00
2019,10,02,06,07,0.00
2019,10,02,06,08,0.00
2019,10,02,06,09,0.00
2019,10,02,06,10,0.00
2019,10,02,06,11,0.00
2019,10,02,06,12,0.00
2019,10,02,06,13,0.00
2019,10,02,06,14,0.00
2019,10,02,06,15,0.00
2019,10,02,06,16,0.00
2019,10,02,06,17,0.00
2019,10,02,06,18,0.00
2019,10,02,06,19,0.00
2019,10,02,06,20,0.00
2019,10,02,06,21,0.00
2019,10,02,06,22,0.00
2019,10,02,06,23,0.00
2019,10,02,06,24,0.00
2019,10,02,06,25,0.00
2019,10,02,06,26,0.00
2019,10,02,06,27,0.00
2019,10,02,06,28,0.00
2019,10,02,06,29,0.00
2019,10,02,06,30,0.00
2019,10,02,06,31,0.00
2019,10,02,06,32,0.00
2019,10,02,06,33,0.00
2019,10,02,06,34,0.00
2019,10,02,06,35,0.00
2019,10,02,06,36,0.00
2019,10,02,06,37,0.00
2019,10,02,06,38,0.00
2019,10,02,06,39,0.00
2019,10,02,06,40,0.00
2019,10,02,06,41,0.00
2019,10,02,06,42,0.00
2019,10,02,06,43,0.00
2019,10,02,06,44,0.00
2019,10,02,06,45,0.00
2019,10,02,06,46,0.00
2019,10,02,06,47,0.00
2019,10,02,06,48,0.00
2019,10,02,06,49,0.00
2019,10,02,06,50,0.00
2019,10,02,06,51,0.00
2019,10,02,06,52,0.00
2019,10,02,06,53,0.00
2019,10,02,06,54,0.00
2019,10,02,06,55,0.00
2019,10,02,06,56,0.00
2019,10,02,06,57,0.00
2019,10,02,06,58,0.00
2019,10,02,06,59,0.00
2019,10,02,07,00,0.00
2019,10,02,07,01,0.00
2019,10,02,07,02,0.00
2019,10,02,07,03,0.00
2019,10,02,07,04,0.00
2019,10,02,07,05,0.00
2019,10,02,07,06,0.00
2019,10,02,07,07,0.00
2019,10,02,07,08,0.00
2019,10,02,07,09,0.00
2019,10,02,07,10,0.00
2019,10,02,07,11,0.00
2019,10,02,07,12,0.00
2019,10,02,07,13,0.00
2019,10,02,07,14,0.00
2019,10,02,07,15,0.00
2019,10,02,07,16,0.00
2019,10,02,07,17,0.00
2019,10,02,07,18,0.00
2019,10,02,07,19,0.00
2019,10,02,07,20,0.00
2019,10,02,07,21,0.00
2019,10,02,07,22,0.00
2019,10,02,07,23,0.00
2019,10,02,07,24,0.00
2019,10,02,07,25,0.00
2019,10,02,07,26,0.40
2019,10,02,07,27,5.00
2019,10,02,07,28,5.00
2019,10,02,07,29,5.00
2019,10,02,07,30,5.00
2019,10,02,07,31,5.00
2019,10,02,07,32,6.60
2019,10,02,07,33,7.00
2019,10,02,07,34,7.00
2019,10,02,07,35,7.00
2019,10,02,07,36,7.00
2019,10,02,07,37,8.10
2019,10,02,07,38,9.00
2019,10,02,07,39,10.60
2019,10,02,07,40,11.00
2019,10,02,07,41,11.20
2019,10,02,07,42,12.00
2019,10,02,07,43,12.00
2019,10,02,07,44,12.00
2019,10,02,07,45,12.00
2019,10,02,07,46,13.60
2019,10,02,07,47,14.10
2019,10,02,07,48,16.40
2019,10,02,07,49,18.30
2019,10,02,07,50,19.90
2019,10,02,07,51,21.00
2019,10,02,07,52,21.00
2019,10,02,07,53,22.60
2019,10,02,07,54,23.10
2019,10,02,07,55,25.00
2019,10,02,07,56,25.00
2019,10,02,07,57,25.00
2019,10,02,07,58,25.60
2019,10,02,07,59,26.00
2019,10,02,08,00,26.00
2019,10,02,08,01,27.90
2019,10,02,08,02,28.40
2019,10,02,08,03,30.90
2019,10,02,08,04,34.70
2019,10,02,08,05,37.00
2019,10,02,08,06,35.60
2019,10,02,08,07,36.60
2019,10,02,08,08,37.00
2019,10,02,08,09,37.00
2019,10,02,08,10,37.00
2019,10,02,08,11,37.90
2019,10,02,08,12,39.60
2019,10,02,08,13,40.00
2019,10,02,08,14,41.60
2019,10,02,08,15,44.00
2019,10,02,08,16,46.20
2019,10,02,08,17,47.60
2019,10,02,08,18,49.90
2019,10,02,08,19,51.00
2019,10,02,08,20,52.40
2019,10,02,08,21,53.80
2019,10,02,08,22,56.10
2019,10,02,08,23,62.10
2019,10,02,08,24,74.70
2019,10,02,08,25,82.30
2019,10,02,08,26,91.80
2019,10,02,08,27,108.20
2019,10,02,08,28,130.20
2019,10,02,08,29,147.40
2019,10,02,08,30,143.50
2019,10,02,08,31,124.60
2019,10,02,08,32,98.80
2019,10,02,08,33,80.90
2019,10,02,08,34,76.30
2019,10,02,08,35,76.00
2019,10,02,08,36,75.90
2019,10,02,08,37,74.00
2019,10,02,08,38,74.00
2019,10,02,08,39,74.00
2019,10,02,08,40,72.90
2019,10,02,08,41,72.00
2019,10,02,08,42,70.40
2019,10,02,08,43,70.00
2019,10,02,08,44,69.80
2019,10,02,08,45,68.40
2019,10,02,08,46,67.00
2019,10,02,08,47,65.90
2019,10,02,08,48,63.60
2019,10,02,08,49,62.20
2019,10,02,08,50,60.00
2019,10,02,08,51,58.00
2019,10,02,08,52,58.00
2019,10,02,08,53,58.00
2019,10,02,08,54,58.00
2019,10,02,08,55,58.00
2019,10,02,08,56,59.60
2019,10,02,08,57,60.10
2019,10,02,08,58,62.20
2019,10,02,08,59,63.00
2019,10,02,09,00,63.90
2019,10,02,09,01,66.10
2019,10,02,09,02,68.40
2019,10,02,09,03,69.00
2019,10,02,09,04,69.90
2019,10,02,09,05,70.00
2019,10,02,09,06,70.00
2019,10,02,09,07,70.00
2019,10,02,09,08,70.00
2019,10,02,09,09,70.00
2019,10,02,09,10,70.00
2019,10,02,09,11,70.00
2019,10,02,09,12,70.00
2019,10,02,09,13,70.60
2019,10,02,09,14,72.00
2019,10,02,09,15,72.00
2019,10,02,09,16,73.40
2019,10,02,09,17,74.00
2019,10,02,09,18,74.00
2019,10,02,09,19,73.30
2019,10,02,09,20,69.70
2019,10,02,09,21,70.30
2019,10,02,09,22,73.10
2019,10,02,09,23,75.40
2019,10,02,09,24,76.00
2019,10,02,09,25,76.90
2019,10,02,09,26,77.00
2019,10,02,09,27,77.00
2019,10,02,09,28,77.00
2019,10,02,09,29,78.10
2019,10,02,09,30,80.40
2019,10,02,09,31,81.00
2019,10,02,09,32,81.10
2019,10,02,09,33,83.20
2019,10,02,09,34,84.60
2019,10,02,09,35,87.70
2019,10,02,09,36,90.60
2019,10,02,09,37,93.80
2019,10,02,09,38,96.60
2019,10,02,09,39,98.00
2019,10,02,09,40,100.40
2019,10,02,09,41,102.60
2019,10,02,09,42,104.40
2019,10,02,09,43,105.00
2019,10,02,09,44,106.40
2019,10,02,09,45,108.60
2019,10,02,09,46,109.10
2019,10,02,09,47,111.00
2019,10,02,09,48,111.60
2019,10,02,09,49,113.40
2019,10,02,09,50,114.00
2019,10,02,09,51,115.30
2019,10,02,09,52,117.60
2019,10,02,09,53,119.90
2019,10,02,09,54,121.40
2019,10,02,09,55,123.60
2019,10,02,09,56,125.00
2019,10,02,09,57,126.10
2019,10,02,09,58,125.70
2019,10,02,09,59,125.00
2019,10,02,10,00,123.00
2019,10,02,10,01,121.00
2019,10,02,10,02,121.00
2019,10,02,10,03,121.90
2019,10,02,10,04,123.00
2019,10,02,10,05,124.40
2019,10,02,10,06,126.60
2019,10,02,10,07,127.90
2019,10,02,10,08,128.40
2019,10,02,10,09,131.30
2019,10,02,10,10,134.40
2019,10,02,10,11,136.10
2019,10,02,10,12,138.40
2019,10,02,10,13,140.60
2019,10,02,10,14,142.20
2019,10,02,10,15,146.40
2019,10,02,10,16,148.00
2019,10,02,10,17,148.40
2019,10,02,10,18,151.20
2019,10,02,10,19,159.80
2019,10,02,10,20,167.90
2019,10,02,10,21,175.90
2019,10,02,10,22,181.90
2019,10,02,10,23,183.80
2019,10,02,10,24,177.70
2019,10,02,10,25,173.10
2019,10,02,10,26,171.70
2019,10,02,10,27,172.00
2019,10,02,10,28,172.10
2019,10,02,10,29,174.00
2019,10,02,10,30,175.20
2019,10,02,10,31,180.10
2019,10,02,10,32,184.10
2019,10,02,10,33,187.00
2019,10,02,10,34,191.10
2019,10,02,10,35,193.00
2019,10,02,10,36,192.80
2019,10,02,10,37,191.40
2019,10,02,10,38,190.00
2019,10,02,10,39,190.00
2019,10,02,10,40,191.40
2019,10,02,10,41,188.70
2019,10,02,10,42,188.00
2019,10,02,10,43,188.00
2019,10,02,10,44,188.00
2019,10,02,10,45,188.00
2019,10,02,10,46,188.00
2019,10,02,10,47,189.40
2019,10,02,10,48,190.00
2019,10,02,10,49,190.00
2019,10,02,10,50,190.00
2019,10,02,10,51,190.00
2019,10,02,10,52,190.00
2019,10,02,10,53,190.00
2019,10,02,10,54,190.00
2019,10,02,10,55,191.60
2019,10,02,10,56,190.30
2019,10,02,10,57,192.00
2019,10,02,10,58,191.40
2019,10,02,10,59,189.10
2019,10,02,11,00,188.00
2019,10,02,11,01,186.60
2019,10,02,11,02,185.20
2019,10,02,11,03,184.90
2019,10,02,11,04,182.60
2019,10,02,11,05,180.40
2019,10,02,11,06,179.00
2019,10,02,11,07,179.00
2019,10,02,11,08,179.00
2019,10,02,11,09,179.00
2019,10,02,11,10,179.00
2019,10,02,11,11,179.40
2019,10,02,11,12,181.00
2019,10,02,11,13,182.70
2019,10,02,11,14,185.60
2019,10,02,11,15,188.70
2019,10,02,11,16,192.50
2019,10,02,11,17,194.90
2019,10,02,11,18,195.00
2019,10,02,11,19,195.00
2019,10,02,11,20,194.10
2019,10,02,11,21,192.40
2019,10,02,11,22,189.30
2019,10,02,11,23,186.40
2019,10,02,11,24,185.00
2019,10,02,11,25,182.60
2019,10,02,11,26,180.40
2019,10,02,11,27,179.00
2019,10,02,11,28,179.00
2019,10,02,11,29,179.00
2019,10,02,11,30,179.00
2019,10,02,11,31,179.00
2019,10,02,11,32,177.60
2019,10,02,11,33,175.40
2019,10,02,11,34,173.10
2019,10,02,11,35,169.10
2019,10,02,11,36,164.30
2019,10,02,11,37,159.10
2019,10,02,11,38,153.10
2019,10,02,11,39,148.40
2019,10,02,11,40,144.70
2019,10,02,11,41,140.70
2019,10,02,11,42,137.90
2019,10,02,11,43,135.00
2019,10,02,11,44,132.40
2019,10,02,11,45,130.00
2019,10,02,11,46,128.00
2019,10,02,11,47,128.00
2019,10,02,11,48,128.00
2019,10,02,11,49,129.10
2019,10,02,11,50,131.40
2019,10,02,11,51,133.60
2019,10,02,11,52,135.10
2019,10,02,11,53,137.40
2019,10,02,11,54,139.90
2019,10,02,11,55,143.70
2019,10,02,11,56,147.70
2019,10,02,11,57,151.70
2019,10,02,11,58,155.40
2019,10,02,11,59,156.00
2019,10,02,12,00,156.00
2019,10,02,12,01,156.00
2019,10,02,12,02,163.70
2019,10,02,12,03,175.10
2019,10,02,12,04,178.00
2019,10,02,12,05,183.90
2019,10,02,12,06,188.10
2019,10,02,12,07,193.70
2019,10,02,12,08,198.50
2019,10,02,12,09,204.10
2019,10,02,12,10,210.30
2019,10,02,12,11,216.40
2019,10,02,12,12,220.50
2019,10,02,12,13,226.70
2019,10,02,12,14,230.70
2019,10,02,12,15,234.60
2019,10,02,12,16,236.40
2019,10,02,12,17,238.10
2019,10,02,12,18,240.40
2019,10,02,12,19,243.50
2019,10,02,12,20,247.80
2019,10,02,12,21,251.40
2019,10,02,12,22,254.20
2019,10,02,12,23,258.30
2019,10,02,12,24,254.40
2019,10,02,12,25,245.90
2019,10,02,12,26,243.20
2019,10,02,12,27,244.10
2019,10,02,12,28,249.60
2019,10,02,12,29,257.30
2019,10,02,12,30,261.00
2019,10,02,12,31,270.10
2019,10,02,12,32,274.00
2019,10,02,12,33,277.90
2019,10,02,12,34,286.30
2019,10,02,12,35,282.60
2019,10,02,12,36,279.40
2019,10,02,12,37,276.00
2019,10,02,12,38,274.90
2019,10,02,12,39,272.00
2019,10,02,12,40,271.00
2019,10,02,12,41,278.30
2019,10,02,12,42,294.90
2019,10,02,12,43,306.70
2019,10,02,12,44,331.90
2019,10,02,12,45,351.90
2019,10,02,12,46,346.60
2019,10,02,12,47,326.30
2019,10,02,12,48,301.30
2019,10,02,12,49,282.30
2019,10,02,12,50,278.70
2019,10,02,12,51,276.30
2019,10,02,12,52,276.20
2019,10,02,12,53,275.30
2019,10,02,12,54,271.60
2019,10,02,12,55,260.30
2019,10,02,12,56,252.40
2019,10,02,12,57,250.30
2019,10,02,12,58,252.80
2019,10,02,12,59,263.00
2019,10,02,13,00,276.00
2019,10,02,13,01,280.60
2019,10,02,13,02,287.00
2019,10,02,13,03,275.60
2019,10,02,13,04,275.30
2019,10,02,13,05,276.30
2019,10,02,13,06,279.00
2019,10,02,13,07,289.10
2019,10,02,13,08,279.00
2019,10,02,13,09,260.80
2019,10,02,13,10,248.90
2019,10,02,13,11,236.00
2019,10,02,13,12,224.30
2019,10,02,13,13,213.00
2019,10,02,13,14,207.00
2019,10,02,13,15,200.30
2019,10,02,13,16,195.10
2019,10,02,13,17,193.00
2019,10,02,13,18,192.70
2019,10,02,13,19,192.40
2019,10,02,13,20,193.00
2019,10,02,13,21,192.30
2019,10,02,13,22,190.40
2019,10,02,13,23,185.10
2019,10,02,13,24,179.70
2019,10,02,13,25,172.40
2019,10,02,13,26,166.30
2019,10,02,13,27,161.30
2019,10,02,13,28,156.70
2019,10,02,13,29,153.40
2019,10,02,13,30,149.20
2019,10,02,13,31,147.30
2019,10,02,13,32,143.40
2019,10,02,13,33,140.70
2019,10,02,13,34,137.90
2019,10,02,13,35,135.00
2019,10,02,13,36,129.30
2019,10,02,13,37,124.90
2019,10,02,13,38,120.40
2019,10,02,13,39,117.40
2019,10,02,13,40,114.70
2019,10,02,13,41,111.90
2019,10,02,13,42,111.00
2019,10,02,13,43,109.40
2019,10,02,13,44,109.00
2019,10,02,13,45,109.00
2019,10,02,13,46,109.60
2019,10,02,13,47,111.00
2019,10,02,13,48,111.00
2019,10,02,13,49,111.00
2019,10,02,13,50,111.00
2019,10,02,13,51,112.90
2019,10,02,13,52,113.20
2019,10,02,13,53,114.60
2019,10,02,13,54,116.90
2019,10,02,13,55,119.10
2019,10,02,13,56,122.00
2019,10,02,13,57,126.30
2019,10,02,13,58,128.10
2019,10,02,13,59,132.40
2019,10,02,14,00,134.00
2019,10,02,14,01,134.00
2019,10,02,14,02,132.90
2019,10,02,14,03,132.00
2019,10,02,14,04,130.40
2019,10,02,14,05,129.90
2019,10,02,14,06,128.40
2019,10,02,14,07,130.00
2019,10,02,14,08,130.00
2019,10,02,14,09,131.10
2019,10,02,14,10,134.00
2019,10,02,14,11,138.30
2019,10,02,14,12,142.10
2019,10,02,14,13,149.40
2019,10,02,14,14,151.60
2019,10,02,14,15,153.00
2019,10,02,14,16,154.10
2019,10,02,14,17,155.00
2019,10,02,14,18,155.00
2019,10,02,14,19,156.00
2019,10,02,14,20,158.40
2019,10,02,14,21,160.60
2019,10,02,14,22,162.00
2019,10,02,14,23,162.60
2019,10,02,14,24,164.30
2019,10,02,14,25,165.00
2019,10,02,14,26,163.10
2019,10,02,14,27,161.60
2019,10,02,14,28,160.00
2019,10,02,14,29,160.00
2019,10,02,14,30,161.10
2019,10,02,14,31,162.70
2019,10,02,14,32,169.30
2019,10,02,14,33,175.60
2019,10,02,14,34,176.40
2019,10,02,14,35,178.30
2019,10,02,14,36,179.80
2019,10,02,14,37,182.10
2019,10,02,14,38,185.00
2019,10,02,14,39,185.20
2019,10,02,14,40,184.90
2019,10,02,14,41,183.00
2019,10,02,14,42,182.40
2019,10,02,14,43,180.20
2019,10,02,14,44,178.50
2019,10,02,14,45,176.60
2019,10,02,14,46,174.40
2019,10,02,14,47,171.10
2019,10,02,14,48,168.60
2019,10,02,14,49,166.40
2019,10,02,14,50,163.70
2019,10,02,14,51,160.90
2019,10,02,14,52,157.30
2019,10,02,14,53,155.20
2019,10,02,14,54,151.20
2019,10,02,14,55,147.60
2019,10,02,14,56,144.80
2019,10,02,14,57,140.70
2019,10,02,14,58,136.70
2019,10,02,14,59,133.00
2019,10,02,15,00,128.90
2019,10,02,15,01,126.90
2019,10,02,15,02,124.60
2019,10,02,15,03,122.40
2019,10,02,15,04,121.00
2019,10,02,15,05,122.10
2019,10,02,15,06,123.00
2019,10,02,15,07,124.60
2019,10,02,15,08,126.90
2019,10,02,15,09,127.20
2019,10,02,15,10,128.60
2019,10,02,15,11,130.00
2019,10,02,15,12,131.10
2019,10,02,15,13,133.40
2019,10,02,15,14,134.80
2019,10,02,15,15,135.00
2019,10,02,15,16,134.80
2019,10,02,15,17,134.00
2019,10,02,15,18,133.10
2019,10,02,15,19,132.00
2019,10,02,15,20,130.60
2019,10,02,15,21,130.00
2019,10,02,15,22,128.10
2019,10,02,15,23,127.00
2019,10,02,15,24,126.40
2019,10,02,15,25,124.10
2019,10,02,15,26,123.00
2019,10,02,15,27,121.60
2019,10,02,15,28,121.00
2019,10,02,15,29,118.10
2019,10,02,15,30,115.60
2019,10,02,15,31,113.70
2019,10,02,15,32,113.00
2019,10,02,15,33,113.00
2019,10,02,15,34,113.00
2019,10,02,15,35,113.00
2019,10,02,15,36,113.10
2019,10,02,15,37,114.40
2019,10,02,15,38,117.20
2019,10,02,15,39,120.40
2019,10,02,15,40,123.20
2019,10,02,15,41,126.40
2019,10,02,15,42,129.40
2019,10,02,15,43,131.90
2019,10,02,15,44,134.00
2019,10,02,15,45,134.30
2019,10,02,15,46,135.00
2019,10,02,15,47,134.40
2019,10,02,15,48,134.00
2019,10,02,15,49,132.40
2019,10,02,15,50,130.10
2019,10,02,15,51,127.80
2019,10,02,15,52,126.40
2019,10,02,15,53,124.10
2019,10,02,15,54,121.30
2019,10,02,15,55,117.30
2019,10,02,15,56,111.90
2019,10,02,15,57,107.20
2019,10,02,15,58,103.30
2019,10,02,15,59,99.40
2019,10,02,16,00,96.70
2019,10,02,16,01,93.90
2019,10,02,16,02,93.00
2019,10,02,16,03,93.00
2019,10,02,16,04,93.00
2019,10,02,16,05,93.40
2019,10,02,16,06,95.60
2019,10,02,16,07,97.00
2019,10,02,16,08,97.60
2019,10,02,16,09,98.00
2019,10,02,16,10,98.00
2019,10,02,16,11,97.90
2019,10,02,16,12,96.60
2019,10,02,16,13,94.40
2019,10,02,16,14,92.20
2019,10,02,16,15,90.50
2019,10,02,16,16,87.30
2019,10,02,16,17,84.40
2019,10,02,16,18,82.90
2019,10,02,16,19,80.60
2019,10,02,16,20,78.40
2019,10,02,16,21,77.00
2019,10,02,16,22,76.40
2019,10,02,16,23,76.00
2019,10,02,16,24,76.00
2019,10,02,16,25,74.10
2019,10,02,16,26,74.00
2019,10,02,16,27,73.40
2019,10,02,16,28,72.00
2019,10,02,16,29,72.00
2019,10,02,16,30,70.70
2019,10,02,16,31,70.00
2019,10,02,16,32,69.10
2019,10,02,16,33,68.60
2019,10,02,16,34,67.00
2019,10,02,16,35,66.20
2019,10,02,16,36,65.00
2019,10,02,16,37,65.00
2019,10,02,16,38,63.40
2019,10,02,16,39,63.00
2019,10,02,16,40,63.00
2019,10,02,16,41,62.70
2019,10,02,16,42,62.00
2019,10,02,16,43,62.00
2019,10,02,16,44,60.70
2019,10,02,16,45,60.00
2019,10,02,16,46,58.10
2019,10,02,16,47,57.60
2019,10,02,16,48,55.40
2019,10,02,16,49,54.00
2019,10,02,16,50,53.40
2019,10,02,16,51,53.00
2019,10,02,16,52,51.40
2019,10,02,16,53,51.00
2019,10,02,16,54,51.00
2019,10,02,16,55,50.40
2019,10,02,16,56,49.00
2019,10,02,16,57,49.00
2019,10,02,16,58,49.00
2019,10,02,16,59,49.00
2019,10,02,17,00,47.10
2019,10,02,17,01,47.00
2019,10,02,17,02,46.70
2019,10,02,17,03,46.00
2019,10,02,17,04,46.00
2019,10,02,17,05,44.60
2019,10,02,17,06,44.00
2019,10,02,17,07,43.90
2019,10,02,17,08,42.00
2019,10,02,17,09,42.00
2019,10,02,17,10,42.00
2019,10,02,17,11,42.00
2019,10,02,17,12,42.00
2019,10,02,17,13,40.40
2019,10,02,17,14,40.00
2019,10,02,17,15,40.00
2019,10,02,17,16,40.00
2019,10,02,17,17,40.00
2019,10,02,17,18,40.00
2019,10,02,17,19,39.30
2019,10,02,17,20,39.00
2019,10,02,17,21,39.00
2019,10,02,17,22,39.00